Location: Unspecified
(48.7670°N, 0.0000°E)
Time: 08:56:07
(UTC+00:00)

Courier 1B - Pass Details

Date: 18 June 2019
Orbit: 962 x 1209 km, 28.3° (Epoch: 24 August)

Event Time Altitude Azimuth Distance (km) Brightness Sun altitude
Rises 22:02:04 0° 236° (SW) 4,039 10.7 -13.1°
Reaches altitude 10° 22:06:14 10° 215° (SW) 3,109 9.9 -13.4°
Maximum altitude 22:10:24 15° 183° (S) 2,736 9.3 -13.7°
Enters shadow 22:11:07 15° 176° (S) 2,751 9.3 -13.7°
Drops below altitude 10° 22:14:35 10° 150° (SSE) 3,140 - -14.0°
Sets 22:18:51 0° 129° (SE) 4,101 - -14.3°
